TimeMST,TemperatureF,Dew PointF,Humidity,Sea Level PressureIn,VisibilityMPH,Wind Direction,Wind SpeedMPH,Gust SpeedMPH,PrecipitationIn,Events,Conditions,WindDirDegrees,DateUTC
12:58 AM,42.1,42.1,100,29.87,10.0,ESE,12.7,-,N/A,,Mostly Cloudy,110,2012-12-01 07:58:00
1:58 AM,41.9,41.9,100,29.86,10.0,East,13.8,-,N/A,,Mostly Cloudy,100,2012-12-01 08:58:00
2:03 AM,42.8,42.8,100,29.86,10.0,East,13.8,-,N/A,,Overcast,100,2012-12-01 09:03:00
2:13 AM,42.8,42.8,100,29.86,10.0,East,12.7,-,N/A,,Overcast,90,2012-12-01 09:13:00
2:43 AM,42.8,42.8,100,29.87,10.0,East,15.0,-,N/A,,Overcast,90,2012-12-01 09:43:00
2:58 AM,42.4,42.4,100,29.87,10.0,East,10.4,-,N/A,,Overcast,80,2012-12-01 09:58:00
3:58 AM,43.2,43.2,100,29.88,10.0,East,15.0,-,N/A,,Overcast,90,2012-12-01 10:58:00
4:13 AM,44.6,44.6,100,29.88,10.0,East,15.0,-,N/A,,Overcast,100,2012-12-01 11:13:00
4:18 AM,44.6,44.6,100,29.88,10.0,East,13.8,-,N/A,,Overcast,100,2012-12-01 11:18:00
4:28 AM,42.8,42.8,100,29.87,10.0,East,13.8,-,N/A,,Overcast,100,2012-12-01 11:28:00
4:58 AM,43.5,43.5,100,29.87,10.0,East,11.5,-,N/A,,Overcast,90,2012-12-01 11:58:00
5:58 AM,43.2,43.2,100,29.87,10.0,East,15.0,-,0.00,,Overcast,100,2012-12-01 12:58:00
6:08 AM,42.8,42.8,100,29.87,10.0,ESE,17.3,-,N/A,,Mostly Cloudy,110,2012-12-01 13:08:00
6:58 AM,43.0,43.0,100,29.88,10.0,East,16.1,-,N/A,,Mostly Cloudy,100,2012-12-01 13:58:00
7:58 AM,41.2,41.2,100,29.90,10.0,East,12.7,-,N/A,,Partly Cloudy,90,2012-12-01 14:58:00
8:58 AM,41.9,41.9,100,29.90,10.0,East,13.8,-,N/A,,Clear,90,2012-12-01 15:58:00
9:58 AM,45.5,45.5,100,29.92,10.0,East,10.4,-,N/A,,Mostly Cloudy,80,2012-12-01 16:58:00
10:58 AM,47.1,47.1,100,29.92,10.0,ESE,9.2,-,0.00,,Light Drizzle,110,2012-12-01 17:58:00
11:18 AM,46.4,46.4,100,29.92,10.0,SE,8.1,-,N/A,,Mostly Cloudy,130,2012-12-01 18:18:00
11:33 AM,48.2,48.2,100,29.90,10.0,East,8.1,-,N/A,,Mostly Cloudy,100,2012-12-01 18:33:00
11:58 AM,49.6,49.6,100,29.91,10.0,ENE,3.5,-,0.00,,Scattered Clouds,60,2012-12-01 18:58:00
12:58 PM,53.1,50.4,91,29.88,10.0,East,11.5,-,N/A,,Scattered Clouds,90,2012-12-01 19:58:00
1:58 PM,52.9,50.7,92,29.87,10.0,South,15.0,26.5,N/A,,Mostly Cloudy,190,2012-12-01 20:58:00
2:58 PM,55.6,42.8,62,29.85,10.0,SE,5.8,-,N/A,,Overcast,130,2012-12-01 21:58:00
3:58 PM,57.9,37.9,47,29.83,10.0,South,11.5,-,N/A,,Partly Cloudy,190,2012-12-01 22:58:00
4:58 PM,56.1,36.9,48,29.83,10.0,South,11.5,-,N/A,,Overcast,170,2012-12-01 23:58:00
5:08 PM,57.2,35.6,44,29.83,10.0,South,12.7,-,N/A,,Overcast,170,2012-12-02 00:08:00
5:18 PM,57.2,35.6,44,29.83,10.0,South,15.0,-,N/A,,Overcast,180,2012-12-02 00:18:00
5:58 PM,55.2,37.0,50,29.82,10.0,South,5.8,-,N/A,,Overcast,170,2012-12-02 00:58:00
6:58 PM,50.2,48.7,95,29.83,10.0,SE,10.4,-,0.00,,Light Drizzle,130,2012-12-02 01:58:00
7:03 PM,50.0,50.0,100,29.82,10.0,ESE,13.8,-,N/A,,Light Drizzle,110,2012-12-02 02:03:00
7:18 PM,48.2,48.2,100,29.81,10.0,East,10.4,-,N/A,,Overcast,100,2012-12-02 02:18:00
7:23 PM,48.2,48.2,100,29.80,10.0,East,12.7,-,N/A,,Overcast,100,2012-12-02 02:23:00
7:33 PM,48.2,48.2,100,29.80,10.0,East,10.4,-,N/A,,Overcast,90,2012-12-02 02:33:00
7:58 PM,48.7,48.7,100,29.82,10.0,East,13.8,-,0.00,,Overcast,100,2012-12-02 02:58:00
8:03 PM,48.2,48.2,100,29.80,10.0,ESE,13.8,-,N/A,,Overcast,110,2012-12-02 03:03:00
8:28 PM,48.2,48.2,100,29.79,10.0,ESE,10.4,-,N/A,,Overcast,120,2012-12-02 03:28:00
8:58 PM,47.7,47.7,100,29.79,10.0,ESE,12.7,-,N/A,,Overcast,120,2012-12-02 03:58:00
9:58 PM,47.1,47.1,100,29.76,10.0,ESE,9.2,-,N/A,,Overcast,120,2012-12-02 04:58:00
10:58 PM,47.7,47.7,100,29.75,10.0,ESE,10.4,-,N/A,,Overcast,110,2012-12-02 05:58:00
11:58 PM,47.7,47.7,100,29.71,10.0,East,16.1,-,N/A,,Overcast,100,2012-12-02 06:58:00